Simultaneous Nadir Overpasses (SNOs) Predictions

Prediction of SNOs between AQUA and NOAA-19 Satellite Orbit:

Table of predicted SNOs for the next 14.0 days since TLE Epoch: 7/13/2018
Index Date (AQUA) Time (AQUA) Lat,Lon (AQUA) SZA (AQUA ) Date (NOAA-19) Time (NOAA-19) Lat,Lon (NOAA-19) SZA (NOAA-19 ) Distance(km) Time Diff (sec)
1 07/15/2018 22:58:57 -80.78, -22.79 118.42 07/15/2018 22:58:16 -80.77, -22.72 118.42 1.76 41
2 07/15/2018 23:48:23 80.78, 144.89 61.58 07/15/2018 23:49:18 80.77, 144.78 61.57 1.98 55
3 07/18/2018 04:32:45 80.78, 73.79 61.96 07/18/2018 04:31:53 80.76, 73.86 61.97 1.80 52
4 07/18/2018 05:22:12 -80.77,-118.53 118.05 07/18/2018 05:22:50 -80.77,-118.54 118.06 0.35 38
5 07/20/2018 10:06:34 -80.77, 170.37 117.65 07/20/2018 10:05:25 -80.76, 170.35 117.62 1.51 69
6 07/20/2018 10:56:00 80.77, -21.98 62.36 07/20/2018 10:56:27 80.78, -21.82 62.34 2.87 27
7 07/22/2018 16:29:49 -80.77, 74.60 117.21 07/22/2018 16:29:59 -80.76, 74.50 117.21 1.81 10
8 07/24/2018 22:03:37 80.77, 171.12 63.26 07/24/2018 22:03:37 80.76, 171.11 63.26 0.90 0
9 07/27/2018 03:37:26 -80.77, -92.34 116.26 07/27/2018 03:37:07 -80.76, -92.15 116.27 3.33 19




NCC Satellite Simultaneous Nadir Overpasses (SNOs) Prediction Service
